• En España
  • Lista de países
  • Para 7 días
  • Temperatura del agua
  • Mapa Satelital
  • El tiempo en el mapa
  • Informadores
  • user-avatar
    Iniciar sesión

    Tiempo cada hora Biektau

    Hoy, 18 Junio, Lunes

    Tiempo Temperatura Precipitaciones Viento Presión Humedad
    00:00 +13°C° 0 mm 1 mps 753 mmHg 86%
    01:00 +12°C° 0 mm 1 mps 753 mmHg 86%
    02:00 +12°C° 0 mm 1 mps 753 mmHg 87%
    03:00 +10°C° 0 mm 0 mps 753 mmHg 87%
    04:00 +13°C° 0 mm 1 mps 753 mmHg 84%
    05:00 +15°C° 0 mm 1 mps 753 mmHg 81%
    06:00 +16°C° 0 mm 1 mps 753 mmHg 78%
    07:00 +18°C° 0 mm 2 mps 753 mmHg 74%
    08:00 +19°C° 0 mm 2 mps 752 mmHg 69%
    09:00 +21°C° 0 mm 3 mps 752 mmHg 63%
    10:00 +22°C° 0 mm 3 mps 752 mmHg 60%
    11:00 +23°C° 0 mm 4 mps 752 mmHg 57%
    12:00 +23°C° 0 mm 4 mps 752 mmHg 53%
    13:00 +25°C° 0 mm 4 mps 751 mmHg 53%
    14:00 +25°C° 0 mm 4 mps 751 mmHg 53%
    15:00 +25°C° 0 mm 4 mps 751 mmHg 53%
    16:00 +25°C° 0 mm 4 mps 751 mmHg 58%
    17:00 +24°C° 0 mm 3 mps 751 mmHg 62%
    18:00 +22°C° 0 mm 3 mps 751 mmHg 66%
    19:00 +20°C° 0 mm 3 mps 751 mmHg 69%
    20:00 +18°C° 0 mm 3 mps 751 mmHg 72%
    21:00 +17°C° 0 mm 2 mps 751 mmHg 75%
    22:00 +16°C° 0 mm 2 mps 751 mmHg 76%
    23:00 +15°C° 0 mm 2 mps 751 mmHg 77%

    Mañana, 19 Junio, Martes

    Tiempo Temperatura Precipitaciones Viento Presión Humedad
    00:00 +15°C° 0 mm 2 mps 751 mmHg 78%
    01:00 +14°C° 0 mm 2 mps 751 mmHg 80%
    02:00 +14°C° 0 mm 2 mps 751 mmHg 82%
    03:00 +14°C° 0 mm 2 mps 751 mmHg 84%
    04:00 +15°C° 0 mm 2 mps 751 mmHg 82%
    05:00 +17°C° 0 mm 2 mps 751 mmHg 80%
    06:00 +18°C° 0 mm 2 mps 751 mmHg 78%
    07:00 +19°C° 0 mm 3 mps 751 mmHg 75%
    08:00 +21°C° 0 mm 3 mps 751 mmHg 71%
    09:00 +24°C° 0 mm 3 mps 751 mmHg 68%
    10:00 +25°C° 0 mm 4 mps 751 mmHg 62%
    11:00 +26°C° 0 mm 4 mps 751 mmHg 57%
    12:00 +27°C° 0 mm 4 mps 751 mmHg 51%
    13:00 +27°C° 0 mm 4 mps 751 mmHg 52%
    14:00 +26°C° 0 mm 4 mps 751 mmHg 53%
    15:00 +26°C° 0 mm 4 mps 751 mmHg 55%
    16:00 +26°C° 0 mm 3 mps 750 mmHg 60%
    17:00 +25°C° 0 mm 3 mps 750 mmHg 66%
    18:00 +24°C° 0 mm 3 mps 750 mmHg 71%
    19:00 +21°C° 0 mm 3 mps 750 mmHg 73%
    20:00 +20°C° 0 mm 3 mps 750 mmHg 76%
    21:00 +19°C° 0 mm 3 mps 750 mmHg 78%
    22:00 +18°C° 0 mm 3 mps 750 mmHg 79%
    23:00 +18°C° 0 mm 3 mps 750 mmHg 79%

    Pasado mañana, 20 Junio, Miércoles

    Tiempo Temperatura Precipitaciones Viento Presión Humedad
    00:00 +17°C° 0 mm 3 mps 750 mmHg 80%
    01:00 +17°C° 0 mm 3 mps 749 mmHg 82%
    02:00 +16°C° 0 mm 3 mps 749 mmHg 85%
    03:00 +16°C° 0 mm 3 mps 749 mmHg 87%
    04:00 +17°C° 0 mm 3 mps 749 mmHg 85%
    05:00 +18°C° 0 mm 4 mps 748 mmHg 84%
    06:00 +19°C° 0 mm 4 mps 748 mmHg 82%
    07:00 +20°C° 0,1 mm 5 mps 747 mmHg 79%
    08:00 +22°C° 0,1 mm 6 mps 747 mmHg 76%
    09:00 +23°C° 0,1 mm 7 mps 746 mmHg 73%
    10:00 +23°C° 0,4 mm 7 mps 746 mmHg 73%
    11:00 +23°C° 0,4 mm 8 mps 745 mmHg 73%
    12:00 +24°C° 0,4 mm 8 mps 745 mmHg 74%
    13:00 +23°C° 1 mm 8 mps 745 mmHg 75%
    14:00 +22°C° 1 mm 8 mps 745 mmHg 76%
    15:00 +21°C° 1 mm 8 mps 745 mmHg 77%
    16:00 +20°C° 0 mm 7 mps 745 mmHg 75%
    17:00 +20°C° 0 mm 6 mps 746 mmHg 73%
    18:00 +20°C° 0 mm 4 mps 746 mmHg 71%
    19:00 +18°C° 0 mm 4 mps 747 mmHg 72%
    20:00 +17°C° 0 mm 4 mps 747 mmHg 73%
    21:00 +14°C° 0 mm 3 mps 748 mmHg 74%
    22:00 +14°C° 0 mm 4 mps 748 mmHg 74%
    23:00 +13°C° 0 mm 4 mps 748 mmHg 75%

    21 Junio, Jueves

    Tiempo Temperatura Precipitaciones Viento Presión Humedad
    00:00 +13°C° 0 mm 4 mps 748 mmHg 75%
    01:00 +12°C° 0 mm 4 mps 748 mmHg 74%
    02:00 +12°C° 0 mm 4 mps 749 mmHg 72%
    03:00 +12°C° 0 mm 5 mps 749 mmHg 71%
    04:00 +13°C° 0 mm 5 mps 749 mmHg 72%
    05:00 +13°C° 0 mm 5 mps 749 mmHg 73%
    06:00 +14°C° 0 mm 5 mps 749 mmHg 74%
    07:00 +15°C° 0 mm 6 mps 749 mmHg 68%
    08:00 +17°C° 0 mm 7 mps 749 mmHg 63%
    09:00 +18°C° 0 mm 7 mps 749 mmHg 57%
    10:00 +20°C° 0 mm 7 mps 749 mmHg 56%
    11:00 +20°C° 0 mm 7 mps 749 mmHg 54%
    12:00 +21°C° 0 mm 7 mps 749 mmHg 52%
    13:00 +21°C° 0 mm 7 mps 749 mmHg 54%
    14:00 +21°C° 0 mm 7 mps 749 mmHg 57%
    15:00 +21°C° 0 mm 7 mps 749 mmHg 59%
    16:00 +21°C° 0 mm 6 mps 749 mmHg 63%
    17:00 +20°C° 0 mm 5 mps 749 mmHg 67%
    18:00 +20°C° 0 mm 4 mps 750 mmHg 71%
    19:00 +18°C° 0 mm 3 mps 750 mmHg 73%
    20:00 +17°C° 0 mm 3 mps 750 mmHg 75%
    21:00 +14°C° 0 mm 3 mps 751 mmHg 78%
    22:00 +13°C° 0 mm 3 mps 751 mmHg 77%
    23:00 +13°C° 0 mm 3 mps 751 mmHg 75%

    22 Junio, Viernes

    Tiempo Temperatura Precipitaciones Viento Presión Humedad
    00:00 +12°C° 0 mm 3 mps 752 mmHg 74%
    01:00 +13°C° 0 mm 2 mps 752 mmHg 75%
    02:00 +12°C° 0 mm 2 mps 753 mmHg 75%
    03:00 +12°C° 0 mm 2 mps 753 mmHg 75%
    04:00 +13°C° 0 mm 2 mps 753 mmHg 75%
    05:00 +14°C° 0 mm 2 mps 754 mmHg 74%
    06:00 +16°C° 0 mm 2 mps 754 mmHg 73%
    07:00 +17°C° 0 mm 2 mps 754 mmHg 68%
    08:00 +19°C° 0 mm 2 mps 754 mmHg 63%
    09:00 +21°C° 0 mm 2 mps 754 mmHg 59%
    10:00 +21°C° 0 mm 2 mps 754 mmHg 56%
    11:00 +22°C° 0 mm 3 mps 755 mmHg 54%
    12:00 +24°C° 0 mm 3 mps 755 mmHg 51%
    13:00 +24°C° 0 mm 3 mps 755 mmHg 52%
    14:00 +24°C° 0 mm 3 mps 755 mmHg 53%
    15:00 +25°C° 0 mm 3 mps 755 mmHg 54%
    16:00 +24°C° 0 mm 2 mps 755 mmHg 59%
    17:00 +24°C° 0 mm 2 mps 755 mmHg 63%
    18:00 +24°C° 0 mm 2 mps 754 mmHg 68%
    19:00 +21°C° 0 mm 2 mps 755 mmHg 73%
    20:00 +19°C° 0 mm 2 mps 755 mmHg 78%
    21:00 +17°C° 0 mm 2 mps 755 mmHg 83%
    22:00 +17°C° 0 mm 2 mps 755 mmHg 84%
    23:00 +16°C° 0 mm 2 mps 755 mmHg 85%

    23 Junio, Sábado

    Tiempo Temperatura Precipitaciones Viento Presión Humedad
    00:00 +16°C° 0 mm 2 mps 755 mmHg 87%
    01:00 +15°C° 0 mm 2 mps 755 mmHg 87%
    02:00 +15°C° 0 mm 2 mps 756 mmHg 88%
    03:00 +15°C° 0 mm 2 mps 756 mmHg 89%
    04:00 +16°C° 0 mm 2 mps 756 mmHg 86%
    05:00 +17°C° 0 mm 2 mps 756 mmHg 83%
    06:00 +18°C° 0 mm 2 mps 756 mmHg 80%
    07:00 +20°C° 0 mm 2 mps 756 mmHg 76%
    08:00 +22°C° 0 mm 3 mps 756 mmHg 71%
    09:00 +24°C° 0 mm 3 mps 756 mmHg 67%
    10:00 +25°C° 0 mm 3 mps 756 mmHg 63%
    11:00 +26°C° 0 mm 3 mps 756 mmHg 60%
    12:00 +27°C° 0 mm 3 mps 756 mmHg 57%
    13:00 +27°C° 0 mm 3 mps 756 mmHg 57%
    14:00 +28°C° 0 mm 3 mps 756 mmHg 57%
    15:00 +28°C° 0 mm 3 mps 755 mmHg 57%
    16:00 +27°C° 0 mm 3 mps 755 mmHg 62%
    17:00 +27°C° 0 mm 2 mps 755 mmHg 66%
    18:00 +26°C° 0 mm 2 mps 755 mmHg 71%
    19:00 +24°C° 0 mm 2 mps 755 mmHg 76%
    20:00 +21°C° 0 mm 2 mps 755 mmHg 82%
    21:00 +20°C° 0 mm 2 mps 755 mmHg 87%
    22:00 +19°C° 0 mm 2 mps 755 mmHg 88%
    23:00 +18°C° 0 mm 2 mps 756 mmHg 89%
    Mostrar más